User: anonymous   Login
Location: Unspecified
(0.0000°N, 0.0000°E)
Time: 08:07:33
(UTC+00:00)
Language:

ATS 6 - Orbit

View from above orbital plane
View from above orbital plane
View from above satellite
View from above satellite

Ground track
Ground track

The orbit data is extracted from the following two-line orbital elements,

1  7318U 74039A   19345.65559838  .00000066  00000-0  00000+0 0  9994
2  7318   7.7668 295.9131 0028526 258.6391 306.8498  1.01977053 97863
Epoch (UTC): 11 December 2019 15:44:03
Eccentricity: 0.0028526
inclination: 7.7668°
perigee height: 35196 km
apogee height: 35434 km
right ascension of ascending node: 295.9131°
argument of perigee: 258.6391°
revolutions per day: 1.01977053
mean anomaly at epoch: 306.8498°
orbit number at epoch: 9786

The dashed part of the orbit path shows where the satellite is in the earth's shadow,  

DLR